Regional Weather Roundup
Issued by NWS

Home | Current Version | Previous Version | Text Only | Print | Product List | Glossary Off
Versions: 1 2 3 4 5 6 7 8 9 10 11 12 13 14 15 16 17 18 19 20 21 22 23 24 25 26 27 28 29 30 31 32 33 34 35 36 37 38 39 40 41 42 43 44 45 46 47 48 49 50

000
ASUS43 KFSD 282310
RWRSD

WEATHER ROUNDUP FOR SOUTH DAKOTA
NATIONAL WEATHER SERVICE SIOUX FALLS SD
500 PM CST WED JAN 28 2015

NOTE: "FAIR" INDICATES FEW OR NO CLOUDS BELOW 12,000 FEET WITH NO
SIGNIFICANT WEATHER AND/OR OBSTRUCTIONS TO VISIBILITY.


SDZ001>005-009-010-012>017-290000-
NORTHWEST AND NORTH CENTRAL SOUTH DAKOTA

CITY           SKY/WX    TMP DP  RH WIND       PRES   REMARKS
BUFFALO          N/A     34  30  85 NW29G38   30.03R WCI  20
FAITH            N/A     36  29  75 NW31G46   29.99R
MOBRIDGE       CLOUDY    36  30  79 NW25G37   29.91R
$$

SDZ012>016-024>037-041>051-057-063-072>074-290000-
SOUTHWEST AND SOUTH CENTRAL SOUTH DAKOTA

CITY           SKY/WX    TMP DP  RH WIND       PRES   REMARKS
RAPID CTY ARPT CLOUDY    49  30  48 N30G40    29.99R
PIERRE         CLOUDY    49  34  56 NW35G43   29.86R
CUSTER         CLOUDY    44  19  36 NW22G35   30.04R
ELLSWORTH AFB  CLOUDY    48  31  50 N32G41    30.00R
PHILIP         CLOUDY    51  30  44 NW30G37   29.93R
PINE RIDGE     CLOUDY    50  32  50 W15G24    30.02R
WINNER         FAIR      56  30  37 NW32G39   29.84R
$$

SDZ004>011-016>023-039-040-290000-
NORTHEAST SOUTH DAKOTA

CITY           SKY/WX    TMP DP  RH WIND       PRES   REMARKS
ABERDEEN       CLOUDY    38  34  85 N23G30    29.84R
WATERTOWN      MOCLDY    37  32  82 NW9       29.75R
SISSETON         N/A     36  33  89 NW5       29.78R
$$

SDZ017-020-022-023-036>040-048>070-290000-
SOUTHEAST SOUTH DAKOTA

CITY           SKY/WX    TMP DP  RH WIND       PRES   REMARKS
SIOUX FALLS    MOCLDY    43  35  73 NW5       29.72R
HURON          PTCLDY    41  36  82 NW10      29.78R
CHAMBERLAIN    MOCLDY    51  34  52 NW17G25   29.83R
MITCHELL       CLEAR     47  39  74 N17       29.76R
YANKTON        CLEAR     48  37  66 NW14      29.73R
$$

ABBREVIATIONS USED IN REMARKS
   TC - TEMPERATURE IN CELSIUS
  WCI - WIND CHILL INDEX
   HX - HEAT INDEX
  VSB - VISIBILITY




USA.gov is the U.S. government's official web portal to all federal, state and local government web resources and services.